Regional Weather Roundup
Issued by NWS

Home | Current Version | Previous Version | Graphics & Text | Print | Product List | Glossary On
Versions: 1 2 3 4 5 6 7 8 9 10 11 12 13 14 15 16 17 18 19 20 21 22 23 24 25 26 27 28 29 30 31 32 33 34 35 36 37 38 39 40 41 42 43 44 45 46 47 48 49 50
000
ASUS43 KDMX 051908
RWRIA

WEATHER ROUNDUP FOR IOWA
NATIONAL WEATHER SERVICE DES MOINES IA
100 PM CST FRI FEB 05 2016

NOTE: "FAIR" INDICATES FEW OR NO CLOUDS BELOW 12,000 FEET WITH NO
SIGNIFICANT WEATHER AND/OR OBSTRUCTIONS TO VISIBILITY.

* - THESE STATIONS ARE NOT NWS STATIONS...THUS NOT UNDER NWS
QUALITY CONTROL.  THEY ALSO DO NOT REPORT WEATHER SUCH
AS PRECIPITATION OR FOG.

IAZ001>003-012>014-020>022-031>034-043>046-052000-
   NORTHWEST IOWA

CITY           SKY/WX    TMP DP  RH WIND       PRES   REMARKS
CARROLL *      MOSUNNY   27  21  80 S10       30.29F WCI  17
CHEROKEE *     LGT SNOW  27  23  86 S16       30.25F WCI  14
DENISON *      MIX PCPN  27  23  86 S12G18    30.26F VSB 1   WCI  16
LE MARS *      CLOUDY    27  27 100 S17       30.23F WCI  14
ORANGE CITY *  CLOUDY    27  25  93 S18       30.20F FOG     WCI  13
SHELDON *      PTSUNNY   27  23  86 S22G29    30.19F FOG     WCI  12
SIOUX CITY     CLOUDY    29  23  78 S15       30.25F HAZE    WCI  18
SPENCER        LGT SNOW  24  19  81 S13       30.24F WCI  12
STORM LAKE *   MOSUNNY   27  23  86 S21       30.24F WCI  13
$$

IAZ055>058-069>071-079>083-090>094-052000-
   SOUTHWEST IOWA

CITY           SKY/WX    TMP DP  RH WIND       PRES   REMARKS
ATLANTIC *     MOSUNNY   28  23  80 S10       30.31F HAZE    WCI  19
AUDUBON *      MOSUNNY   28  23  80 S8        30.31F WCI  20
CLARINDA *     CLOUDY    32  25  74 S10       30.35F WCI  24
COUNCIL BLFS * MIX PCPN  28  27  93 S12       30.28F VSB 3/4 WCI  18
CRESTON *      CLOUDY    28  19  69 S9        30.34F WCI  20
HARLAN  *      MIX PCPN  27  27 100 S12       30.32F VSB 1   WCI  16
LAMONI         CLOUDY    30  21  69 S6        30.34F WCI  24
RED OAK *      CLOUDY    30  25  80 S12       30.32F WCI  21
SHENANDOAH *   CLOUDY    32  27  80 S13       30.34F WCI  22
$$

IAZ047>049-059>061-072>074-084-052000-
   CENTRAL IOWA

CITY           SKY/WX    TMP DP  RH WIND       PRES   REMARKS
AMES           CLOUDY    24  18  77 SE8       30.35F WCI  15
ANKENY *       SUNNY     27  18  69 S7        30.36F WCI  19
BOONE *        PTSUNNY   23  18  80 SE10      30.31F WCI  12
CHARITON *     SUNNY     30  19  64 S8        30.36F WCI  23
DES MOINES     CLOUDY    27  16  63 S9        30.36F WCI  18
GRINNELL*      CLOUDY    25  18  74 CALM      30.37F
KNOXVILLE *    SUNNY     27  18  69 SE6       30.36F WCI  20
MARSHALLTOWN   CLOUDY    24  17  74 S6        30.35F WCI  17
NEWTON *       MOSUNNY   25  19  80 S6        30.36F WCI  18
PELLA *        CLOUDY    27  19  74 CALM      30.39F
$$

IAZ004>006-015-016-023>025-035-036-052000-
   NORTH CENTRAL IOWA

CITY           SKY/WX    TMP DP  RH WIND       PRES   REMARKS
ALGONA *       MOSUNNY   23  18  80 S18       30.27F WCI   9
CLARION *      PTSUNNY   19  18  93 S14       30.31F WCI   6
ESTHERVILLE    CLOUDY    21  16  81 S17       30.24F WCI   7
FORT DODGE *   CLOUDY    25  16  68 S10       30.31F WCI  15
MASON CITY     CLOUDY    20  16  84 S12       30.32F WCI   8
FOREST CITY *  PTSUNNY   21  19  93 S12       30.29F WCI   9
WEBSTER CITY * MOSUNNY   21  18  86 S13       30.30F WCI   9
IOWA FALLS *     N/A     23  18  80 S8        30.35F WCI  14
$$

IAZ007>011-017>019-026>030-037>042-050>054-066-052000-
   NORTHEAST IOWA

CITY           SKY/WX    TMP DP  RH WIND       PRES   REMARKS
CEDAR RAPIDS   MOSUNNY   26  19  74 W5        30.37F WCI  20
CHARLES CITY * CLOUDY    18  16  93 S9        30.34F WCI   6
CLINTON *      MOSUNNY   31  22  69 W6        30.38F WCI  25
DECORAH *      SUNNY     21  12  68 S6        30.32F WCI  14
DUBUQUE        MOSUNNY   25  18  74 SW6       30.35F WCI  18
MONTICELLO *   SUNNY     27  18  69 CALM      30.37F
OELWEIN *      SUNNY     18  14  86 S7        30.36F WCI   8
WATERLOO       CLOUDY    21  14  74 S9        30.36F WCI  11
$$

IAZ064-065-067-068-078-052000-
   EAST CENTRAL IOWA

CITY           SKY/WX    TMP DP  RH WIND       PRES   REMARKS
DAVENPORT      CLOUDY    30  20  66 NW5       30.38F WCI  25
IOWA CITY      CLOUDY    28  20  71 W7        30.41F WCI  21
MT. PLEASANT * CLOUDY    32  21  64 CALM      30.40F
MUSCATINE *    SUNNY     30  19  64 SW8       30.41F WCI  23
QUAD CITIES    CLOUDY    31  18  58 VRB3      30.38F
$$

IAZ062-063-075>077-085>089-095>099-052000-
   SOUTHEAST IOWA

CITY           SKY/WX    TMP DP  RH WIND       PRES   REMARKS
BURLINGTON     CLOUDY    29  22  75 W5        30.39F WCI  24
FAIRFIELD *    SUNNY     27  16  63 CALM      30.39F
FORT MADISON * SUNNY     30  21  69 CALM      30.40F
KEOKUK *       SUNNY     32  19  59 CALM      30.39F
OSKALOOSA *    CLOUDY    27  18  69 CALM      30.39F
CENTERVILLE *    N/A    N/A N/A N/A MISG        N/A
OTTUMWA        CLOUDY    27  18  69 CALM      30.38F
WASHINGTON *   SUNNY     28  21  74 W5        30.41F WCI  23
$$

ABBREVIATIONS USED IN REMARKS
   TC - TEMPERATURES IN CELSIUS
  WCI - WIND CHILL INDEX
   HX - HEAT INDEX
  VSB - VISIBILITY
$$




USA.gov is the U.S. government's official web portal to all federal, state and local government web resources and services.